Showing default

AE1C, 62649

Orbit data source: Space-Track

AE1C, 62649 is a payload satellite owned by ArkEdge (JP) in SSO that was launched on Tue, 14 Jan 2025 UTC via an FALCON 9 launch vehicle from the Air Force Western Test Range (AFWTR). Payload-class satellites include a variety of spacecraft equipped with specific instruments for various scientific and technological missions. These include communications satellites like Starlink; space stations such as the ISS; scientific satellites like the Hubble; Earth observation satellites from companies like Planet Labs, Umbra, and HawkEye 360; GPS; miniature CubeSats for education and research; and military/defense satellites.

Loading next visibility...
Identifier
62649, 2025-009AS
Orbit
SSO
Country
Flag of JPJP / JPN
Related business
Manufacturer
ArkEdge
Mission
Operational Commercial Technology
Bus & Motor
CUBESAT 6U, Unknown motor
Mass
~10 kg wet, ~10 kg dry
Launch date (UTC)
2025-01-14 (11 months ago)
Launch vehicle
FALCON 9
Launch site
Air Force Western Test Range (AFWTR)
Object type
Payload
Rocket body
Debris
Shape & HBR
Box + 2 Pan, 0.3 m
Radar Cross Section
0.080 m², Medium (>0.1 m² and < 1m²)

Expand to show TLE details & history
Last TLE update: 14 hours ago

TLE from 14 hours ago
0 AE1C
1 62649U 25009AS  25353.47590622  .00019310  00000-0  58483-3 0  9991
2 62649  97.4190  73.8073 0001927 180.0930 180.0313 15.34203789 51629
Epoch: 2025-12-19T11:25Z
TLE epoch observation values (Epoch: 2025-12-19T11:25:18.297Z)
Latitude
0.00001°
Longitude
174.16454°
Altitude
467.714 km
Speed
7.632 km/s
True Right ascension
04h 55m 13s
True Declination
0° 00' 00"
Sunlit
Object was in full shadow at epoch
Visualization orbit readout
Latitude
Unknown
Longitude
Unknown
Altitude
Unknown
Speed
Unknown
Apparent Right ascension
Unknown
Apparent Declination
Unknown
Sunlit
N/A
Visualization observer readout
Local Sidereal Time
00:48:13
Azimuth
Unknown
Elevation
Unknown
Doppler factor
Unknown
Orbital elements
Apogee altitude
461.552 km
Perigee altitude
458.916 km
Semi-major axis
6,838.371 km
Eccentricity
0.00019
Inclination
97.419°
RAAN
73.8073°
Arg. of periapsis
180.093°
True anomaly
180.03129°
Mean anomaly
180.0313°
Eccentric anomaly
180.03129°
Mean motion
3.83808 °/min
Orbital period
93.8 mins
BSTAR
0.00058483
Loading maneuver chart data...
Computing Atmospheric mass density...
Loading historical data...
Loading historical data...
Loading historical data...
Loading historical data...
Loading historical data...
Loading historical data...
Loading historical data...

Documentation

Showing up to 5 results
|